When you browse on this site, cookies collect data to enhance your experience and personalize the content and advertising you see.
Visit our Privacy Policy to learn more. By continuing to use the site, you agree to this use of cookies and data.
  • In Austria
  • List of Countries
  • For 7 days
  • Water Temperature
  • Weather Map
  • News
  • Weather Widgets
  • user-avatar
    Login

    Hourly Weather Kremnoe

    Today, 23 February, Sunday

    Time Temperature Precipitation Wind Pressure Humidity
    00:00 +3°C° 0 mm 7 mps 747 mmHg 66%
    01:00 +3°C° 0 mm 6 mps 747 mmHg 67%
    02:00 +4°C° 0 mm 7 mps 746 mmHg 68%
    03:00 +4°C° 0.1 mm 7 mps 745 mmHg 71%
    04:00 +4°C° 0.1 mm 7 mps 745 mmHg 75%
    05:00 +4°C° 0.1 mm 7 mps 744 mmHg 79%
    06:00 +4°C° 0.1 mm 7 mps 744 mmHg 77%
    07:00 +4°C° 0.1 mm 7 mps 744 mmHg 75%
    08:00 +4°C° 0.1 mm 7 mps 744 mmHg 73%
    09:00 +4°C° 0.2 mm 7 mps 744 mmHg 69%
    10:00 +4°C° 0.2 mm 8 mps 744 mmHg 66%
    11:00 +4°C° 0.2 mm 8 mps 744 mmHg 62%
    12:00 +5°C° 0.2 mm 8 mps 744 mmHg 58%
    13:00 +5°C° 0.2 mm 8 mps 744 mmHg 55%
    14:00 +5°C° 0.2 mm 8 mps 743 mmHg 51%
    15:00 +5°C° 0 mm 6 mps 743 mmHg 55%
    16:00 +5°C° 0 mm 5 mps 742 mmHg 59%
    17:00 +5°C° 0 mm 4 mps 742 mmHg 62%
    18:00 +4°C° 0.1 mm 4 mps 742 mmHg 67%
    19:00 +4°C° 0.1 mm 4 mps 741 mmHg 72%
    20:00 +4°C° 0.1 mm 4 mps 741 mmHg 77%
    21:00 +3°C° 0.1 mm 3 mps 740 mmHg 80%
    22:00 +3°C° 0.1 mm 3 mps 738 mmHg 83%
    23:00 +3°C° 0.1 mm 3 mps 737 mmHg 86%

    Tomorrow, 24 February, Monday

    Time Temperature Precipitation Wind Pressure Humidity
    00:00 +3°C° 0.7 mm 2 mps 736 mmHg 89%
    01:00 +3°C° 0.7 mm 2 mps 734 mmHg 93%
    02:00 +3°C° 0.7 mm 1 mps 733 mmHg 96%
    03:00 +2°C° 0.6 mm 2 mps 733 mmHg 95%
    04:00 +1°C° 0.6 mm 3 mps 733 mmHg 95%
    05:00 0°C° 0.6 mm 4 mps 732 mmHg 94%
    06:00 0°C° 0 mm 5 mps 734 mmHg 92%
    07:00 0°C° 0 mm 5 mps 735 mmHg 89%
    08:00 0°C° 0 mm 5 mps 737 mmHg 87%
    09:00 +1°C° 0.1 mm 6 mps 738 mmHg 83%
    10:00 +1°C° 0.1 mm 6 mps 739 mmHg 79%
    11:00 0°C° 0.1 mm 7 mps 740 mmHg 74%
    12:00 +2°C° 0 mm 7 mps 740 mmHg 74%
    13:00 +2°C° 0 mm 7 mps 741 mmHg 73%
    14:00 +2°C° 0 mm 7 mps 742 mmHg 73%
    15:00 +2°C° 0 mm 6 mps 742 mmHg 70%
    16:00 +2°C° 0 mm 6 mps 743 mmHg 67%
    17:00 +2°C° 0 mm 6 mps 743 mmHg 64%
    18:00 +1°C° 0 mm 5 mps 744 mmHg 67%
    19:00 0°C° 0 mm 4 mps 745 mmHg 69%
    20:00 0°C° 0 mm 4 mps 746 mmHg 72%
    21:00 0°C° 0 mm 3 mps 746 mmHg 75%
    22:00 0°C° 0 mm 3 mps 747 mmHg 78%
    23:00 -1°C° 0 mm 2 mps 747 mmHg 80%

    Day after tomorrow, 25 February, Tuesday

    Time Temperature Precipitation Wind Pressure Humidity
    00:00 -1°C° 0 mm 2 mps 747 mmHg 82%
    01:00 -1°C° 0 mm 2 mps 747 mmHg 84%
    02:00 -1°C° 0 mm 2 mps 747 mmHg 86%
    03:00 -1°C° 0 mm 2 mps 746 mmHg 87%
    04:00 -1°C° 0 mm 2 mps 745 mmHg 87%
    05:00 -1°C° 0 mm 2 mps 745 mmHg 87%
    06:00 0°C° 0 mm 3 mps 744 mmHg 86%
    07:00 0°C° 0 mm 3 mps 744 mmHg 85%
    08:00 0°C° 0 mm 3 mps 744 mmHg 84%
    09:00 -1°C° 0.3 mm 4 mps 743 mmHg 87%
    10:00 -1°C° 0.3 mm 4 mps 742 mmHg 91%
    11:00 -1°C° 0.3 mm 4 mps 741 mmHg 95%
    12:00 -1°C° 0.5 mm 4 mps 740 mmHg 95%
    13:00 -1°C° 0.5 mm 4 mps 740 mmHg 96%
    14:00 0°C° 0.5 mm 4 mps 739 mmHg 96%
    15:00 +1°C° 0.3 mm 4 mps 739 mmHg 94%
    16:00 +3°C° 0.3 mm 4 mps 738 mmHg 93%
    17:00 +4°C° 0.3 mm 4 mps 737 mmHg 91%
    18:00 +3°C° 0.1 mm 5 mps 737 mmHg 91%
    19:00 +3°C° 0.1 mm 5 mps 737 mmHg 91%
    20:00 +3°C° 0.1 mm 5 mps 738 mmHg 90%
    21:00 +3°C° 0.1 mm 5 mps 737 mmHg 90%
    22:00 +4°C° 0.1 mm 4 mps 737 mmHg 90%
    23:00 +4°C° 0.1 mm 4 mps 737 mmHg 91%

    26 February, Wednesday

    Time Temperature Precipitation Wind Pressure Humidity
    00:00 +4°C° 0.2 mm 4 mps 737 mmHg 91%
    01:00 +4°C° 0.2 mm 4 mps 737 mmHg 91%
    02:00 +4°C° 0.2 mm 4 mps 737 mmHg 91%
    03:00 +3°C° 0.1 mm 3 mps 737 mmHg 88%
    04:00 +3°C° 0.1 mm 3 mps 737 mmHg 85%
    05:00 +2°C° 0.1 mm 3 mps 736 mmHg 81%
    06:00 +3°C° 0 mm 2 mps 737 mmHg 82%
    07:00 +3°C° 0 mm 2 mps 737 mmHg 84%
    08:00 +3°C° 0 mm 2 mps 737 mmHg 85%
    09:00 +3°C° 0 mm 3 mps 737 mmHg 78%
    10:00 +4°C° 0 mm 3 mps 737 mmHg 71%
    11:00 +5°C° 0 mm 3 mps 737 mmHg 64%
    12:00 +5°C° 0 mm 3 mps 737 mmHg 61%
    13:00 +7°C° 0 mm 3 mps 737 mmHg 57%
    14:00 +7°C° 0 mm 3 mps 737 mmHg 54%
    15:00 +6°C° 0 mm 2 mps 737 mmHg 58%
    16:00 +6°C° 0 mm 2 mps 736 mmHg 61%
    17:00 +6°C° 0 mm 1 mps 736 mmHg 65%
    18:00 +6°C° 0 mm 1 mps 737 mmHg 68%
    19:00 +5°C° 0 mm 1 mps 737 mmHg 72%
    20:00 +4°C° 0 mm 1 mps 737 mmHg 75%
    21:00 +4°C° 0 mm 1 mps 737 mmHg 77%
    22:00 +4°C° 0 mm 1 mps 737 mmHg 78%
    23:00 +4°C° 0 mm 1 mps 737 mmHg 80%

    27 February, Thursday

    Time Temperature Precipitation Wind Pressure Humidity
    00:00 +3°C° 0 mm 1 mps 737 mmHg 82%
    01:00 +3°C° 0 mm 1 mps 737 mmHg 84%
    02:00 +2°C° 0 mm 0 mps 737 mmHg 85%
    03:00 +2°C° 0 mm 0 mps 737 mmHg 85%
    04:00 +3°C° 0 mm 1 mps 737 mmHg 86%
    05:00 +3°C° 0 mm 1 mps 736 mmHg 86%
    06:00 +3°C° 0 mm 1 mps 737 mmHg 87%
    07:00 +2°C° 0 mm 0 mps 737 mmHg 87%
    08:00 +2°C° 0 mm 0 mps 737 mmHg 88%
    09:00 +4°C° 0 mm 1 mps 737 mmHg 83%
    10:00 +5°C° 0 mm 1 mps 737 mmHg 77%
    11:00 +5°C° 0 mm 2 mps 738 mmHg 72%
    12:00 +6°C° 0 mm 2 mps 738 mmHg 69%
    13:00 +5°C° 0 mm 3 mps 738 mmHg 66%
    14:00 +7°C° 0 mm 3 mps 738 mmHg 64%
    15:00 +5°C° 0 mm 3 mps 738 mmHg 65%
    16:00 +4°C° 0 mm 3 mps 739 mmHg 67%
    17:00 +4°C° 0 mm 3 mps 739 mmHg 69%
    18:00 +3°C° 0 mm 3 mps 740 mmHg 71%
    19:00 +2°C° 0 mm 3 mps 740 mmHg 73%
    20:00 +2°C° 0 mm 3 mps 740 mmHg 75%
    21:00 +2°C° 0 mm 2 mps 741 mmHg 78%
    22:00 +2°C° 0 mm 2 mps 741 mmHg 81%
    23:00 +1°C° 0 mm 2 mps 741 mmHg 84%

    28 February, Friday

    Time Temperature Precipitation Wind Pressure Humidity
    00:00 +1°C° 0 mm 2 mps 741 mmHg 86%
    01:00 -1°C° 0 mm 2 mps 741 mmHg 88%
    02:00 -1°C° 0 mm 2 mps 741 mmHg 90%
    03:00 -2°C° 0 mm 2 mps 741 mmHg 90%
    04:00 -2°C° 0 mm 2 mps 741 mmHg 90%
    05:00 -2°C° 0 mm 2 mps 741 mmHg 90%
    06:00 -2°C° 0 mm 2 mps 741 mmHg 89%
    07:00 -2°C° 0 mm 2 mps 741 mmHg 88%
    08:00 0°C° 0 mm 1 mps 741 mmHg 87%
    09:00 +1°C° 0 mm 2 mps 741 mmHg 79%
    10:00 +2°C° 0 mm 2 mps 741 mmHg 71%
    11:00 +2°C° 0 mm 3 mps 741 mmHg 64%
    12:00 +3°C° 0 mm 3 mps 740 mmHg 59%
    13:00 +4°C° 0 mm 4 mps 739 mmHg 54%
    14:00 +5°C° 0 mm 5 mps 739 mmHg 50%
    15:00 +4°C° 0 mm 4 mps 738 mmHg 53%
    16:00 +4°C° 0 mm 4 mps 738 mmHg 56%
    17:00 +4°C° 0 mm 4 mps 738 mmHg 59%
    18:00 +3°C° 0.2 mm 4 mps 738 mmHg 69%
    19:00 +2°C° 0.2 mm 5 mps 737 mmHg 78%
    20:00 +1°C° 0.2 mm 5 mps 737 mmHg 87%
    21:00 +1°C° 0.1 mm 5 mps 737 mmHg 86%
    22:00 +1°C° 0.1 mm 5 mps 737 mmHg 86%
    23:00 0°C° 0.1 mm 4 mps 737 mmHg 85%
    Show more